[[{"header":{"parameterUnit":"m.s-1","parameterCategory":1,"la1":30.2991,"la2":30.254,"lo1":-89.0895,"lo2":-89.0444,"dy":0.0017,"dx":0.0017,"nx":28,"ny":28,"refTime":"2025-11-04T03:00:00:Z","depth":0,"parameterNumber":2,"parameterNumberName":"U-component_of_WINDS"},"data":[0,0,0,0,0,0,0,0,0,0,0,0,0,0,0,0,0,0,0,0,0,0,0,0,0,0,0,0,0,0,0,0,0,0,0,0,0,0,0,0,0,0,0,0,0,0,0,0,0,0,0,0,0,0,0,0,0,0,0.4664,0.4665,0,0.4781,0.4783,0.4784,0.4852,0.4853,0.4853,0.4853,0.4971,0.4974,0.4977,0,0,0,0,0,0,0,0,0,0,0,0,0,0.4496,0.4498,0.4663,0.4665,0.4666,0.4781,0.4783,0.4784,0.4852,0.4853,0.4853,0.4853,0.497,0.4974,0.4977,0,0,0,0,0,0,0,0,0,0,0,0,0,0.4586,0.4499,0.4663,0.4714,0.472,0.4781,0.4783,0.4785,0.4852,0.4853,0.4853,0.4853,0.4969,0.4973,0.4978,0.4996,0,0,0.4991,0.4993,0,0,0,0,0,0,0,0,0.4581,0.4592,0.4705,0.4711,0.4717,0.4803,0.4767,0.4856,0.4852,0.4802,0.4853,0.4854,0.4915,0.4924,0.4945,0.5002,0.5007,0.4991,0.4994,0.4996,0.4997,0,0,0,0,0,0,0,0.4575,0.4588,0.471,0.4707,0.4714,0.4731,0.4744,0.4784,0.4854,0.4806,0.4812,0.4825,0.4918,0.494,0.4948,0.5009,0.4991,0.4995,0.4998,0.4999,0.5087,0.5087,0,0,0,0,0,0,0.4561,0.4582,0.4706,0.4714,0.4649,0.4733,0.4748,0.4775,0.4854,0.4867,0.4824,0.4827,0.4933,0.4943,0.4952,0.498,0.4996,0.5,0.5002,0.5088,0.5087,0.5087,0,0,0,0,0,0,0.4557,0.4571,0.4702,0.4649,0.4667,0.4736,0.4765,0.4777,0.4799,0.4868,0.488,0.4834,0.4933,0.4946,0.4985,0.4985,0.5002,0.5006,0.5088,0.5088,0.5087,0.5033,0,0,0,0,0,0,0.4552,0.4569,0.4577,0.4649,0.467,0.4733,0.4765,0.4779,0.4807,0.4812,0.488,0.4892,0.4935,0.4978,0.4989,0.4991,0.5009,0.5088,0.5088,0.5087,0.5036,0.5031,0.5028,0,0,0,0,0,0.4545,0.4557,0.4577,0.4592,0.4681,0.4732,0.4744,0.4794,0.4806,0.4815,0.4859,0.489,0.4983,0.4982,0.4995,0.4997,0.5089,0.5088,0.5087,0.5037,0.5032,0.5028,0,0,0,0,0,0,0.4482,0.4567,0.4591,0.4626,0.4672,0.4744,0.4756,0.4786,0.4829,0.4832,0.4891,0.4906,0.4939,0.4972,0.4969,0.502,0.5039,0.5041,0.4997,0.4992,0.4988,0.4979,0.5013,0,0,0,0,0,0.4472,0.4507,0.458,0.4604,0.4625,0.4687,0.4711,0.4745,0.4794,0.4814,0.4861,0.4907,0.4947,0.4971,0.5012,0.5041,0.5057,0.5049,0.5045,0.5042,0.5043,0.5061,0.5058,0.5085,0.5085,0.5085,0,0,0.4452,0.4503,0.4521,0.4592,0.4632,0.4666,0.4702,0.4737,0.4763,0.4819,0.4859,0.4895,0.495,0.4984,0.5002,0.5013,0.5039,0.5041,0.5038,0.5041,0.506,0.5057,0.5055,0.5085,0.5085,0.5085,0,0,0.4433,0.4475,0.45,0.4539,0.4599,0.464,0.4645,0.4714,0.474,0.4781,0.4824,0.4856,0.4923,0.4961,0.4989,0.4985,0.5015,0.4996,0.4975,0.4992,0.499,0.4989,0.4987,0.4986,0.4997,0.4997,0.4997,0,0.44,0.4454,0.4508,0.4541,0.4571,0.4625,0.465,0.4685,0.4754,0.4773,0.4785,0.4871,0.4912,0.4956,0.4955,0.4977,0.4985,0.4988,0.4986,0.4985,0.4984,0.4984,0.4983,0.4994,0.4995,0.4995,0.4995,0,0.4411,0.4448,0.4461,0.4528,0.4559,0.4588,0.4646,0.4671,0.4703,0.4742,0.4783,0.4835,0.4887,0.49,0.4931,0.4948,0.4954,0.4975,0.4996,0.4978,0.4979,0.4979,0.4991,0.4992,0.4992,0.4993,0,0,0.4353,0.4451,0.4455,0.4486,0.4557,0.4586,0.4617,0.4669,0.4689,0.4736,0.4763,0.4819,0.484,0.4872,0.4908,0.4923,0.4916,0.4943,0.4945,0.4936,0.4939,0.4921,0.492,0.4937,0.4937,0.4937,0.4934,0,0.4344,0.4404,0.4454,0.4495,0.453,0.4581,0.4609,0.4654,0.4692,0.4727,0.4769,0.4808,0.4832,0.4852,0.4869,0.4913,0.4918,0.4914,0.4962,0.4963,0.4946,0.492,0.4902,0.4896,0.4934,0.4934,0.4935,0,0.4341,0.4386,0.4431,0.4499,0.4515,0.4539,0.459,0.4623,0.4676,0.4703,0.4739,0.4777,0.4812,0.4829,0.4878,0.4875,0.4898,0.4923,0.4924,0.4929,0.4947,0.4925,0.4896,0.4894,0.4935,0.4935,0.4935,0,0.4294,0.4366,0.4403,0.4428,0.4508,0.4523,0.4557,0.4611,0.4639,0.4684,0.4703,0.4751,0.4777,0.4813,0.4863,0.4871,0.4907,0.4929,0.4929,0.4928,0.4933,0.4932,0.4907,0.4949,0.4949,0.4949,0.4949,0,0.4278,0.4303,0.4383,0.4405,0.4434,0.4492,0.4519,0.4558,0.4605,0.4635,0.4683,0.471,0.4775,0.4809,0.4848,0.4883,0.4894,0.4916,0.4926,0.4912,0.4909,0.4927,0.4928,0.4949,0.4949,0.4949,0.4949,0,0.423,0.4285,0.4327,0.44,0.4419,0.4438,0.45,0.4523,0.4564,0.4602,0.4614,0.4678,0.4721,0.4775,0.4835,0.4862,0.4892,0.4908,0.4874,0.488,0.4877,0.4876,0.4862,0.4863,0.4904,0.4904,0.4904,0,0.4216,0.4236,0.4312,0.4336,0.4369,0.4407,0.4436,0.4494,0.4522,0.4585,0.46,0.4648,0.4689,0.4756,0.4807,0.4854,0.487,0.4862,0.4878,0.4862,0.487,0.4868,0.487,0.4858,0.4857,0.4856,0.4856,0,0.4184,0.421,0.4251,0.4302,0.4336,0.4379,0.4423,0.444,0.4507,0.4536,0.4582,0.4613,0.4676,0.4722,0.4776,0.481,0.4844,0.4851,0.4854,0.4838,0.4818,0.4828,0.4862,0.4851,0.4851,0.4852,0.4852,0.4852,0.4152,0.4173,0.423,0.4274,0.4314,0.4355,0.438,0.4425,0.4465,0.452,0.4552,0.4597,0.465,0.4726,0.4759,0.4794,0.4807,0.481,0.4811,0.4811,0.4806,0.4813,0.4804,0.4804,0.4805,0.4805,0.4805,0,0.4123,0.4162,0.4202,0.4264,0.4298,0.4329,0.438,0.4407,0.4446,0.4493,0.4533,0.4585,0.4631,0.4687,0.4736,0.4753,0.477,0.4764,0.4763,0.477,0.4793,0.4785,0.475,0.475,0.475,0.475,0.475,0.475,0.4111,0.4148,0.4182,0.4239,0.4278,0.4323,0.435,0.4387,0.4426,0.4482,0.4521,0.4558,0.4608,0.4662,0.4705,0.472,0.4735,0.4725,0.4744,0.4764,0.4769,0.4773,0.4767,0.4728,0.4728,0.4719,0.4719,0.4719]},{"header":{"parameterUnit":"m.s-1","parameterCategory":1,"la1":30.2991,"la2":30.254,"lo1":-89.0895,"lo2":-89.0444,"dy":0.0017,"dx":0.0017,"nx":28,"ny":28,"refTime":"2025-11-04T03:00:00:Z","depth":0,"parameterNumber":3,"parameterNumberName":"V-component_of_WINDS"},"data":[0,0,0,0,0,0,0,0,0,0,0,0,0,0,0,0,0,0,0,0,0,0,0,0,0,0,0,0,0,0,0,0,0,0,0,0,0,0,0,0,0,0,0,0,0,0,0,0,0,0,0,0,0,0,0,0,0,0,-0.6392,-0.6392,0,-0.6377,-0.6376,-0.6376,-0.6351,-0.6351,-0.635,-0.635,-0.6335,-0.6335,-0.6335,0,0,0,0,0,0,0,0,0,0,0,0,0,-0.6402,-0.6402,-0.6392,-0.6392,-0.6392,-0.6377,-0.6376,-0.6376,-0.6351,-0.6351,-0.635,-0.635,-0.6335,-0.6335,-0.6335,0,0,0,0,0,0,0,0,0,0,0,0,0,-0.6393,-0.6402,-0.6392,-0.6378,-0.6376,-0.6377,-0.6376,-0.6376,-0.6351,-0.6351,-0.635,-0.6349,-0.6335,-0.6335,-0.6335,-0.6349,0,0,-0.6335,-0.6335,0,0,0,0,0,0,0,0,-0.6394,-0.6393,-0.638,-0.6379,-0.6377,-0.6365,-0.6374,-0.6367,-0.6352,-0.6361,-0.635,-0.6349,-0.6346,-0.6345,-0.6343,-0.6348,-0.6348,-0.6335,-0.6335,-0.6335,-0.6335,0,0,0,0,0,0,0,-0.6394,-0.6394,-0.6386,-0.638,-0.6378,-0.6372,-0.637,-0.6373,-0.6357,-0.636,-0.6358,-0.6357,-0.6345,-0.6343,-0.6343,-0.6348,-0.6335,-0.6335,-0.6335,-0.6335,-0.6364,-0.6364,0,0,0,0,0,0,-0.6397,-0.6394,-0.6387,-0.6386,-0.6384,-0.6373,-0.637,-0.637,-0.6357,-0.6355,-0.6357,-0.6355,-0.6344,-0.6343,-0.6342,-0.6358,-0.6335,-0.6335,-0.6335,-0.6363,-0.6364,-0.6365,0,0,0,0,0,0,-0.6397,-0.6397,-0.6387,-0.6389,-0.6388,-0.6373,-0.6373,-0.637,-0.6368,-0.6355,-0.6352,-0.6359,-0.6343,-0.6342,-0.6348,-0.6357,-0.6335,-0.6335,-0.6362,-0.6363,-0.6364,-0.639,0,0,0,0,0,0,-0.6398,-0.6397,-0.6402,-0.639,-0.6388,-0.6392,-0.6373,-0.637,-0.6368,-0.6366,-0.6356,-0.6353,-0.6343,-0.6348,-0.6348,-0.6357,-0.6335,-0.6361,-0.6363,-0.6364,-0.6388,-0.6392,-0.6395,0,0,0,0,0,-0.6398,-0.641,-0.6402,-0.6401,-0.6393,-0.6393,-0.6392,-0.6379,-0.6369,-0.6374,-0.6366,-0.6354,-0.6356,-0.6348,-0.6348,-0.6358,-0.6361,-0.6362,-0.6364,-0.6386,-0.6391,-0.6395,0,0,0,0,0,0,-0.6423,-0.6408,-0.6399,-0.6407,-0.6402,-0.6389,-0.6395,-0.6384,-0.6381,-0.6379,-0.6364,-0.6362,-0.6369,-0.6364,-0.6356,-0.6371,-0.6357,-0.6358,-0.6374,-0.6378,-0.6381,-0.6382,-0.6336,0,0,0,0,0,-0.643,-0.6431,-0.6417,-0.6425,-0.6423,-0.6409,-0.6409,-0.6399,-0.6393,-0.6391,-0.6383,-0.6377,-0.6377,-0.6377,-0.6376,-0.6387,-0.6385,-0.6393,-0.6397,-0.64,-0.6401,-0.6407,-0.6411,-0.637,-0.637,-0.637,0,0,-0.6443,-0.6435,-0.6436,-0.643,-0.6425,-0.6426,-0.6408,-0.641,-0.6411,-0.6391,-0.6396,-0.639,-0.6383,-0.6391,-0.6395,-0.6387,-0.6412,-0.6402,-0.6404,-0.6404,-0.6409,-0.6413,-0.6417,-0.6371,-0.6371,-0.6371,0,0,-0.6469,-0.6462,-0.6468,-0.6463,-0.6455,-0.6446,-0.6448,-0.6437,-0.6432,-0.6436,-0.6421,-0.6423,-0.6422,-0.6418,-0.6416,-0.644,-0.6429,-0.644,-0.6458,-0.6464,-0.6467,-0.647,-0.6479,-0.6482,-0.6442,-0.6442,-0.6442,0,-0.6486,-0.6487,-0.6473,-0.6476,-0.6474,-0.6456,-0.6463,-0.6459,-0.6451,-0.645,-0.6442,-0.6441,-0.6435,-0.6443,-0.6449,-0.6447,-0.6449,-0.6442,-0.6468,-0.647,-0.6473,-0.6481,-0.6485,-0.6444,-0.6443,-0.6443,-0.6443,0,-0.651,-0.6511,-0.6517,-0.651,-0.6509,-0.6514,-0.65,-0.6501,-0.6491,-0.6484,-0.6488,-0.6481,-0.6478,-0.6479,-0.647,-0.6485,-0.6481,-0.647,-0.6456,-0.6478,-0.6486,-0.6489,-0.6446,-0.6445,-0.6445,-0.6444,0,0,-0.6551,-0.6535,-0.6538,-0.6535,-0.6525,-0.6525,-0.653,-0.6527,-0.6528,-0.6523,-0.6527,-0.6527,-0.6517,-0.6515,-0.6505,-0.651,-0.6531,-0.6499,-0.6499,-0.6506,-0.6548,-0.6556,-0.656,-0.6523,-0.6524,-0.6524,-0.6548,0,-0.6574,-0.658,-0.6567,-0.6577,-0.6578,-0.6561,-0.6565,-0.656,-0.6552,-0.6553,-0.6545,-0.6545,-0.6532,-0.6531,-0.6535,-0.6527,-0.6539,-0.6525,-0.6527,-0.6527,-0.6529,-0.6564,-0.6572,-0.6595,-0.6551,-0.6552,-0.6552,0,-0.6602,-0.6599,-0.6608,-0.6598,-0.6598,-0.6602,-0.6598,-0.6599,-0.6592,-0.6587,-0.6584,-0.6573,-0.6577,-0.6563,-0.6569,-0.656,-0.656,-0.6556,-0.6557,-0.6557,-0.6541,-0.6565,-0.6602,-0.6606,-0.6556,-0.6556,-0.6556,0,-0.6631,-0.6629,-0.6635,-0.6632,-0.662,-0.6623,-0.6619,-0.6612,-0.6611,-0.6608,-0.6607,-0.6605,-0.6604,-0.6603,-0.6591,-0.6582,-0.6599,-0.6583,-0.6595,-0.6595,-0.6599,-0.6599,-0.6638,-0.6599,-0.6599,-0.6598,-0.6598,0,-0.6659,-0.6666,-0.6648,-0.6651,-0.6658,-0.6644,-0.6651,-0.6645,-0.6639,-0.6641,-0.6626,-0.6629,-0.6614,-0.6615,-0.6606,-0.6612,-0.6612,-0.6608,-0.6606,-0.6609,-0.661,-0.6609,-0.6608,-0.6599,-0.6599,-0.6599,-0.6599,0,-0.6693,-0.6681,-0.6686,-0.6674,-0.6671,-0.6677,-0.6668,-0.6671,-0.6662,-0.6666,-0.6666,-0.6653,-0.6654,-0.6642,-0.664,-0.6634,-0.6645,-0.664,-0.6647,-0.6645,-0.6657,-0.6657,-0.6697,-0.6702,-0.666,-0.666,-0.666,0,-0.6711,-0.6716,-0.6705,-0.6705,-0.6701,-0.6702,-0.6701,-0.6687,-0.6687,-0.668,-0.6684,-0.6683,-0.6682,-0.6684,-0.6675,-0.6674,-0.6668,-0.6683,-0.6668,-0.6672,-0.6669,-0.6669,-0.667,-0.6686,-0.6686,-0.6687,-0.6687,0,-0.6746,-0.674,-0.6739,-0.6736,-0.6735,-0.6732,-0.6728,-0.6729,-0.6714,-0.6715,-0.6715,-0.6714,-0.6712,-0.6712,-0.6709,-0.6705,-0.6694,-0.6692,-0.6694,-0.6699,-0.6703,-0.6701,-0.6656,-0.6691,-0.6691,-0.669,-0.669,-0.669,-0.6773,-0.6776,-0.6769,-0.6769,-0.6764,-0.6761,-0.6763,-0.6756,-0.6755,-0.6753,-0.6745,-0.6746,-0.674,-0.6735,-0.6732,-0.6734,-0.6727,-0.673,-0.6731,-0.6733,-0.6735,-0.6702,-0.6733,-0.6733,-0.6733,-0.6733,-0.6733,0,-0.6807,-0.6801,-0.6801,-0.6796,-0.6796,-0.6785,-0.678,-0.6781,-0.6783,-0.6778,-0.6777,-0.6777,-0.6777,-0.6768,-0.6767,-0.677,-0.6765,-0.677,-0.677,-0.6769,-0.6741,-0.6739,-0.6774,-0.6774,-0.6774,-0.6774,-0.6774,-0.6774,-0.6824,-0.683,-0.6823,-0.6827,-0.6821,-0.6823,-0.6821,-0.6818,-0.6814,-0.6816,-0.6815,-0.6809,-0.6803,-0.6801,-0.6801,-0.6798,-0.6799,-0.6806,-0.6802,-0.6775,-0.6771,-0.6767,-0.6766,-0.6806,-0.6806,-0.683,-0.683,-0.683]}]]